This is the latest recevied weather packets stored in our database for station/object KE9DBJ-13. If no packets are shown the sender has not sent any weather packets the latest 10 day(s).
| Time | Temp. | Humidity | Pressure | Rain* | Wind** | Luminosity | Snow |
|---|---|---|---|---|---|---|---|
| 1777885203 | 9.44° C | 79% | 1010.5 hPa | 0 mm | - | - | - |
| 1777884603 | 8.89° C | 77% | 1010.5 hPa | 0 mm | - | - | - |
| 1777884003 | 8.89° C | 77% | 1010.5 hPa | 0 mm | - | - | - |
| 1777883403 | 8.89° C | 79% | 1010.5 hPa | 0 mm | - | - | - |
| 1777882802 | 8.89° C | 78% | 1010.6 hPa | 0 mm | - | - | - |
| 1777882202 | 8.89° C | 78% | 1010.8 hPa | 0 mm | - | - | - |
| 1777881602 | 8.89° C | 76% | 1010.8 hPa | 0 mm | - | - | - |
| 1777881002 | 8.89° C | 77% | 1010.9 hPa | 0 mm | - | - | - |
| 1777880402 | 8.89° C | 77% | 1011.1 hPa | 0 mm | - | - | - |
| 1777879802 | 8.89° C | 77% | 1011.2 hPa | 0 mm | - | - | - |
| 1777879202 | 8.89° C | 77% | 1011.2 hPa | 0 mm | - | - | - |
| 1777878602 | 9.44° C | 74% | 1011.2 hPa | 0 mm | - | - | - |
| 1777878003 | 9.44° C | 75% | 1011.2 hPa | 0 mm | - | - | - |
| 1777877403 | 9.44° C | 76% | 1011.4 hPa | 0 mm | - | - | - |
| 1777876803 | 9.44° C | 76% | 1011.5 hPa | 0 mm | - | - | - |
| 1777876203 | 9.44° C | 75% | 1011.7 hPa | 0 mm | - | - | - |
| 1777875603 | 9.44° C | 77% | 1011.7 hPa | 0 mm | - | - | - |
| 1777875002 | 8.89° C | 79% | 1011.7 hPa | 0 mm | - | - | - |
| 1777874402 | 8.89° C | 79% | 1012 hPa | 0 mm | - | - | - |
| 1777873802 | 8.89° C | 77% | 1012.3 hPa | 0 mm | - | - | - |
| 1777873202 | 8.89° C | 78% | 1012.4 hPa | 0 mm | - | - | - |
| 1777872602 | 8.89° C | 77% | 1012.4 hPa | 0 mm | - | - | - |
| 1777872002 | 9.44° C | 75% | 1012.4 hPa | 0 mm | - | - | - |
| 1777871402 | 9.44° C | 75% | 1012.5 hPa | 0 mm | - | - | - |
| 1777870802 | 9.44° C | 73% | 1012.2 hPa | 0 mm | - | - | - |
* Rain latest hour (hover to see other rain measurements)
** Current wind speed in m/s (hover to see current wind gust speed)